Location: Saint Peter Port
(49.4500°N, 2.5330°W)
Time: 02:02:43
(UTC+00:00)

Cosmos 2242 Rocket - Visible Passes

Search period start: 08 February 2016 00:00
Search period end: 18 February 2016 00:00
Orbit: 618 x 653 km, 82.5° (Epoch: 07 February)

Date Brightness Start Highest point End Pass type
(mag) Time Alt. Az. Time Alt. Az. Time Alt. Az.
08 Feb 4.5 04:47:42 43° NNE 04:47:42 43° NNE 04:50:47 10° NNE visible
08 Feb 5.3 06:25:14 14° WNW 06:25:14 14° WNW 06:27:34 10° NNW visible
09 Feb 6.5 03:33:08 14° NE 03:33:08 14° NE 03:34:08 10° NE visible
09 Feb 4.7 05:10:40 32° NNW 05:10:40 32° NNW 05:13:17 10° N visible
10 Feb 6.1 03:55:58 18° NE 03:55:58 18° NE 03:57:23 10° NNE visible
10 Feb 5.1 05:33:30 21° NNW 05:33:30 21° NNW 05:35:31 10° N visible
11 Feb 5.7 04:18:44 21° NNE 04:18:44 21° NNE 04:20:12 10° NNE visible
11 Feb 5.6 05:56:15 14° NW 05:56:15 14° NW 05:57:20 10° NNW visible
12 Feb 5.6 04:41:26 19° N 04:41:26 19° N 04:42:46 10° N visible
13 Feb 6.7 03:26:34 11° NNE 03:26:34 11° NNE 03:26:42 10° NNE visible
13 Feb 5.7 05:04:04 16° NNW 05:04:04 16° NNW 05:05:05 10° N visible
14 Feb 6.4 03:49:10 13° NNE 03:49:10 13° NNE 03:49:37 10° NNE visible
14 Feb 5.9 05:26:40 11° NNW 05:26:40 11° NNW 05:27:01 10° NNW visible
15 Feb 6.2 04:11:44 13° N 04:11:44 13° N 04:12:14 10° N visible
16 Feb 6.1 04:34:16 12° N 04:34:16 12° N 04:34:37 10° N visible
